Location: Casco Millpond
(44.5581°N, 87.6111°W)
Time: 23:16:33
(UTC+00:00)

SMAP - Pass Details

Date: 16 January 2026
Orbit: 682 x 683 km, 98.1° (Epoch: 13 February)

Event Time Altitude Azimuth Distance (km) Brightness Sun altitude
Rises 12:12:22 0° 13° (NNE) 3,056 6.4 -12.4°
Reaches altitude 10° 12:14:37 10° 14° (NNE) 2,136 5.6 -12.0°
Maximum altitude 12:19:18 86° 103° (ESE) 691 3.1 -11.2°
Drops below altitude 10° 12:23:56 10° 193° (SSW) 2,118 5.7 -10.4°
Sets 12:26:10 0° 194° (SSW) 3,029 6.5 -10.1°
